Weather History for Kandahar, Afghanistan

Change the Weather History Date:

Thursday, November 28, 2013

  Actual Average Record
Temperature  
Mean Temperature 54 °F -  
Max Temperature 66 °F 61 °F - ()
Min Temperature 42 °F 34 °F - ()
Degree Days  
Heating Degree Days 11    
Growing Degree Days 4 (Base 50)    
Moisture  
Dew Point 39 °F    
Average Humidity 62    
Maximum Humidity 93    
Minimum Humidity 30    
Precipitation  
Precipitation 0.00 in 0.03 in - ()
Sea Level Pressure  
Sea Level Pressure 30.20 in    
Wind  
Wind Speed 4 mph ()    
Max Wind Speed 7 mph    
Max Gust Speed -    
Visibility 5.9 miles    
Events      
T = Trace of Precipitation, MM = Missing Value Source: Averaged Metar Reports

Daily Weather History Graph

Daily Weather History Graph

Search for Another Location

Airport:

Trip Planner

Search our weather history database for the weather conditions in past years. The results will help you decide how hot, cold, wet, or windy it might be!

Date:

Astronomy

Nov. 28, 2013 Rise Set
Actual Time 6:45 AM AFT 5:03 PM AFT
Civil Twilight 6:19 AM AFT 5:29 PM AFT
Nautical Twilight 5:49 AM AFT 5:59 PM AFT
Astronomical Twilight 5:19 AM AFT 6:28 PM AFT
Moon 1:39 AM AFT (11/28) 1:42 PM AFT (11/28)
Length of Visible Light 11h 10m
Length of Day
10h 17m
Waning Crescent, 26% of the Moon is Illuminated
Nov 28
Waning Crescent
Dec 3
New
Dec 9
First Quarter
Dec 17
Full
Dec 25
Last Quarter

Hourly Weather History & Observations

Time (AFT) Temp. Windchill Dew Point Humidity Pressure Visibility Wind Dir Wind Speed Gust Speed Precip Events Conditions
12:20 AM 50.0 °F - 42.8 °F 76% 30.19 in 6.2 mi Variable 2.3 mph - N/A   Clear
1:20 AM 48.2 °F - 42.8 °F 82% 30.19 in 5.6 mi SE 4.6 mph - N/A   Haze
2:20 AM 46.4 °F 44.3 °F 42.8 °F 87% 30.20 in 5.6 mi East 4.6 mph - N/A   Haze
3:20 AM 44.6 °F 42.2 °F 41.0 °F 87% 30.23 in 5.6 mi NE 4.6 mph - N/A   Haze
4:20 AM 44.6 °F 42.2 °F 41.0 °F 87% 30.23 in 5.6 mi ENE 4.6 mph - N/A   Haze
5:20 AM 42.8 °F 38.6 °F 41.0 °F 93% 30.24 in 5.6 mi NE 6.9 mph - N/A   Haze
6:20 AM 42.8 °F 38.6 °F 39.2 °F 87% 30.26 in 5.6 mi East 6.9 mph - N/A   Haze
7:20 AM 42.8 °F 38.6 °F 39.2 °F 87% 30.28 in 6.2 mi ENE 6.9 mph - N/A   Clear
8:20 AM 48.2 °F - 39.2 °F 71% 30.27 in 6.2 mi East 5.8 mph - N/A   Clear
9:20 AM 53.6 °F - 41.0 °F 62% 30.25 in 5.6 mi ENE 5.8 mph - N/A   Haze
10:20 AM 57.2 °F - 41.0 °F 55% 30.22 in 5.6 mi ENE 5.8 mph - N/A   Haze
11:20 AM 60.8 °F - 37.4 °F 42% 30.19 in 5.6 mi Variable 3.5 mph - N/A   Haze
12:20 PM 62.6 °F - 37.4 °F 39% 30.15 in 6.2 mi Variable 3.5 mph - N/A   Clear
1:20 PM 64.4 °F - 37.4 °F 37% 30.11 in 6.2 mi NNW 3.5 mph - N/A   Clear
2:20 PM 64.4 °F - 35.6 °F 34% 30.09 in 6.2 mi Variable 3.5 mph - N/A   Clear
3:20 PM 66.2 °F - 33.8 °F 30% 30.08 in 6.2 mi Variable 3.5 mph - N/A   Clear
4:20 PM 64.4 °F - 32.0 °F 30% 30.09 in 6.2 mi Variable 2.3 mph - N/A   Clear
5:20 PM 62.6 °F - 35.6 °F 37% 30.12 in 6.2 mi West 5.8 mph - N/A   Clear
6:20 PM 57.2 °F - 41.0 °F 55% 30.16 in 6.2 mi West 6.9 mph - N/A   Clear
7:20 PM 55.4 °F - 39.2 °F 54% 30.19 in 6.2 mi WNW 6.9 mph - N/A   Clear
8:20 PM 53.6 °F - 39.2 °F 58% 30.22 in 6.2 mi WNW 5.8 mph - N/A   Clear
9:20 PM 53.6 °F - 37.4 °F 54% 30.26 in 5.6 mi Variable 2.3 mph - N/A   Smoke
10:20 PM 51.8 °F - 41.0 °F 67% 30.27 in 5.6 mi Variable 1.2 mph - N/A   Smoke
11:20 PM 50.0 °F - 41.0 °F 71% 30.28 in 5.6 mi ESE 1.2 mph - N/A   Smoke